Date,TemperatureHighF,TemperatureAvgF,TemperatureLowF,DewpointHighF,DewpointAvgF,DewpointLowF,HumidityHigh,HumidityAvg,HumidityLow,PressureMaxIn,PressureMinIn,WindSpeedMaxMPH,WindSpeedAvgMPH,GustSpeedMaxMPH,PrecipitationSumIn
2013-1-1,32.4,20.4,6.9,29.0,13.5,3.0,93,75,65,29.96,29.72,25,11,0,0.00
2013-1-2,23.0,12.1,0.9,19.0,6.0,-9.0,89,77,56,30.19,29.89,22,3,0,0.00
2013-1-3,21.4,7.3,-7.7,19.0,1.6,-14.0,91,77,64,30.20,29.91,1,0,0,0.00
2013-1-4,32.5,28.9,21.9,26.0,22.3,20.0,92,76,66,29.92,29.80,23,5,0,0.00
2013-1-5,32.2,30.1,27.9,25.0,21.4,17.0,80,70,59,30.22,29.90,21,7,0,0.00
2013-1-6,33.7,30.6,27.5,32.0,27.3,21.0,95,87,73,30.06,29.84,5,0,0,0.01
2013-1-7,32.7,24.3,16.9,32.0,20.2,14.0,95,84,78,30.34,29.94,16,3,0,0.00
2013-1-8,35.8,23.0,12.6,25.0,18.5,10.0,90,83,60,30.31,30.17,4,0,0,0.00
2013-1-9,42.5,31.5,16.2,33.0,23.9,13.0,89,74,61,30.30,29.91,26,4,0,0.04
2013-1-10,38.9,32.5,24.8,27.0,24.0,21.0,88,72,58,30.50,30.14,34,8,0,0.00
2013-1-11,35.9,31.4,24.4,35.0,26.5,20.0,96,83,60,30.46,29.99,4,0,0,0.20
2013-1-12,45.1,39.2,34.9,40.0,37.3,34.0,97,93,81,30.05,29.98,3,0,0,0.01
2013-1-13,50.7,43.4,35.9,47.0,41.9,35.0,100,94,83,30.01,29.80,3,0,0,0.00
2013-1-14,44.8,37.1,30.7,44.0,30.5,21.0,98,77,62,30.29,29.74,28,9,0,0.02
2013-1-15,31.9,30.0,28.1,24.0,22.6,21.0,84,74,66,30.31,30.17,6,1,0,0.00
2013-1-16,31.5,28.8,24.2,28.0,25.0,22.0,94,86,76,30.16,29.75,2,0,0,0.00
2013-1-17,33.2,25.4,18.1,29.0,15.6,2.0,94,67,46,30.12,29.78,23,8,0,0.00
2013-1-18,24.4,16.0,8.3,11.0,4.0,-7.0,75,60,46,30.37,30.07,17,3,0,0.00
2013-1-19,41.6,34.1,24.7,28.0,20.0,12.0,80,57,48,30.12,29.62,3,0,0,0.02
2013-1-20,42.8,30.5,16.2,33.0,20.0,10.0,91,67,46,29.98,29.38,37,12,0,0.03
2013-1-21,20.0,16.6,11.4,16.0,11.0,6.0,88,79,67,29.98,29.76,3,0,0,0.00
2013-1-22,14.9,10.6,3.7,11.0,2.9,-7.0,87,72,50,30.10,29.74,21,8,0,0.00
2013-1-23,4.5,-2.4,-9.1,-6.0,-11.7,-17.0,76,65,51,30.21,30.08,18,2,0,0.00
2013-1-24,7.6,-0.7,-11.5,1.0,-9.1,-18.0,77,68,48,30.41,30.13,20,4,0,0.00
2013-1-25,11.7,6.8,0.3,6.0,-2.5,-10.0,81,66,55,30.43,30.05,16,1,0,0.00
2013-1-26,16.4,6.8,-2.6,6.0,-0.1,-8.0,83,74,55,30.33,30.05,11,1,0,0.00
2013-1-27,19.1,9.4,-3.3,8.0,0.5,-9.0,83,69,46,30.53,30.33,11,0,0,0.00
2013-1-28,30.4,23.7,17.3,29.0,17.6,7.0,95,78,56,30.42,29.86,2,0,0,0.01
2013-1-29,38.5,33.9,30.4,38.0,32.9,29.0,97,96,94,30.04,29.84,3,0,0,0.74
2013-1-30,51.9,45.3,38.8,52.0,44.6,38.0,100,97,91,29.83,29.13,5,1,0,0.43
2013-1-31,50.8,34.4,23.5,50.0,25.8,8.0,99,72,46,29.56,28.88,34,11,0,0.36
2013-2-1,23.5,18.2,12.8,16.0,11.1,4.0,89,74,60,30.12,29.57,26,12,0,0.00
2013-2-2,19.9,13.4,5.0,13.0,7.4,1.0,85,77,60,30.14,29.97,10,0,0,0.00
2013-2-3,25.3,13.2,-0.4,16.0,6.9,-5.0,88,76,58,29.97,29.73,4,0,0,0.00
2013-2-4,19.1,16.3,8.6,16.0,11.0,5.0,89,80,62,29.89,29.75,20,5,0,0.00
2013-2-5,21.4,13.0,0.1,11.0,4.8,-4.0,86,71,52,29.97,29.82,2,0,0,0.00
2013-2-6,26.0,18.2,2.8,23.0,9.1,-2.0,91,70,37,30.33,29.83,26,6,0,0.00
2013-2-7,25.8,15.3,0.7,10.0,3.3,-4.0,84,61,40,30.47,30.22,7,0,0,0.00
2013-2-8,29.3,24.8,20.0,25.0,18.4,8.0,93,77,53,30.22,29.78,7,1,0,0.00
2013-2-9,21.0,13.9,-1.6,18.0,5.1,-7.0,88,69,48,30.36,29.86,22,8,0,0.00
2013-2-10,31.5,12.6,-7.0,13.0,0.8,-13.0,84,63,30,30.45,30.10,5,0,0,0.00
2013-2-11,41.1,33.0,25.7,37.0,26.0,7.0,94,77,43,30.09,29.55,14,1,0,0.26
2013-2-12,33.4,31.8,29.8,30.0,27.4,24.0,94,84,71,29.87,29.62,18,7,0,0.02
2013-2-13,35.8,28.8,20.2,25.0,21.2,17.0,88,74,53,29.83,29.67,6,1,0,0.04
2013-2-14,35.5,27.6,17.2,31.0,21.7,15.0,94,79,61,29.89,29.70,4,0,0,0.03
2013-2-15,38.3,33.7,28.8,33.0,27.5,22.0,96,79,56,29.95,29.75,17,3,0,0.07
2013-2-16,29.0,23.5,16.5,22.0,10.7,3.0,79,59,38,29.97,29.83,16,5,0,0.00
2013-2-17,17.2,12.5,8.8,5.0,0.8,-2.0,77,60,43,30.01,29.78,30,11,0,0.00
2013-2-18,22.4,12.7,3.0,9.0,1.4,-7.0,72,61,51,30.23,30.02,16,5,0,0.00
2013-2-19,32.2,27.1,17.5,31.0,18.5,5.0,95,72,53,30.04,29.58,12,0,0,0.00
2013-2-20,26.4,22.3,20.0,21.0,16.6,13.0,89,79,62,29.88,29.66,20,8,0,0.00
2013-2-21,19.1,14.4,10.2,16.0,8.6,3.0,89,77,70,30.38,29.86,26,11,0,0.00
2013-2-22,33.4,23.0,8.3,24.0,16.1,5.0,88,76,60,30.39,30.10,4,0,0,0.10
2013-2-23,35.2,33.0,31.5,33.0,28.9,23.0,96,85,68,30.10,29.78,4,0,0,0.21
2013-2-24,33.5,30.5,28.7,33.0,27.5,24.0,96,88,74,29.94,29.76,15,4,0,0.04
2013-2-25,36.9,30.9,21.0,31.0,26.5,19.0,94,84,71,30.20,29.94,16,3,0,0.21
2013-2-26,40.8,30.6,16.2,28.0,22.9,14.0,92,74,56,30.22,29.89,10,2,0,0.03
2013-2-27,41.5,35.8,31.9,36.0,32.4,28.0,96,87,72,29.91,29.48,13,2,0,1.00
2013-2-28,36.9,33.6,32.1,34.0,32.0,31.0,97,94,84,29.58,29.47,4,0,0,0.31
2013-3-1,35.5,31.6,27.8,31.0,27.4,21.0,96,85,69,29.79,29.59,16,7,0,0.01
2013-3-2,27.9,24.1,20.8,22.0,17.9,14.0,83,77,69,29.80,29.76,16,8,0,0.00
2013-3-3,25.3,21.3,17.8,18.0,15.5,14.0,85,78,67,29.78,29.73,19,7,0,0.00
2013-3-4,27.8,24.7,21.9,23.0,19.6,17.0,90,81,76,29.91,29.76,26,10,0,0.00
2013-3-5,35.0,28.3,24.5,24.0,20.9,19.0,88,74,60,30.04,29.91,13,2,0,0.00
2013-3-6,43.1,34.0,23.5,28.0,24.1,20.0,88,69,52,30.07,29.95,12,1,0,0.00
2013-3-7,35.8,32.9,27.8,26.0,22.9,19.0,85,67,56,30.15,30.06,17,4,0,0.00
2013-3-8,38.0,30.7,25.6,25.0,22.4,20.0,91,72,52,30.30,30.11,19,10,0,0.03
2013-3-9,44.8,30.5,17.7,27.0,22.2,15.0,90,73,45,30.34,30.24,6,0,0,0.00
2013-3-10,52.8,41.4,27.9,28.0,24.0,22.0,80,53,32,30.24,30.03,5,1,0,0.00
2013-3-11,48.8,44.5,39.5,38.0,30.2,25.0,71,58,50,30.09,29.76,7,1,0,0.00
2013-3-12,48.0,40.2,33.2,45.0,37.0,30.0,95,89,71,29.82,29.69,15,2,0,0.36
2013-3-13,39.3,32.3,27.0,31.0,26.5,17.0,94,80,48,29.83,29.73,18,4,0,0.01
2013-3-14,26.4,22.3,16.1,22.0,13.4,6.0,86,70,46,29.91,29.79,32,14,0,0.00
2013-3-15,33.4,24.5,9.2,31.0,18.1,5.0,91,77,57,29.94,29.60,17,4,0,0.06
2013-3-16,28.7,21.9,15.9,21.0,10.5,7.0,76,62,49,29.91,29.77,15,3,0,0.01
2013-3-17,27.2,17.4,6.3,12.0,5.1,-1.0,88,62,34,30.29,29.90,26,6,0,0.00
2013-3-18,32.8,21.8,8.6,25.0,7.7,0.0,93,58,31,30.37,29.90,12,2,0,0.00
2013-3-19,35.9,28.9,24.8,32.0,25.8,18.0,94,88,71,29.89,29.62,21,3,0,0.24
2013-3-20,31.6,26.1,21.3,23.0,18.8,16.0,87,74,54,29.74,29.70,22,5,0,0.04
2013-3-21,31.8,21.3,8.4,17.0,11.3,5.0,88,68,44,29.74,29.63,21,3,0,0.06
2013-3-22,29.4,25.2,16.5,27.0,21.2,10.0,93,84,69,29.78,29.62,24,4,0,0.01
2013-3-23,34.0,29.9,25.6,27.0,22.8,20.0,93,75,57,29.88,29.76,25,10,0,0.00
2013-3-24,39.2,33.0,27.6,24.0,21.7,19.0,77,64,46,29.87,29.70,13,5,0,0.07
2013-3-25,43.1,34.8,28.4,26.0,22.1,19.0,72,61,44,29.70,29.49,11,1,0,0.02
2013-3-26,41.9,36.0,31.3,28.0,23.7,15.0,82,63,37,29.82,29.58,16,4,0,0.00
2013-3-27,42.3,35.5,29.5,30.0,27.1,24.0,83,72,58,29.94,29.81,21,7,0,0.00
2013-3-28,42.6,37.0,32.7,33.0,30.6,28.0,93,78,58,30.09,29.92,22,6,0,0.00
2013-3-29,41.3,37.4,34.7,33.0,29.4,27.0,83,73,60,30.10,30.04,14,4,0,0.00
2013-3-30,45.8,35.9,26.1,30.0,25.0,19.0,94,68,36,30.12,30.03,13,3,0,0.00
2013-3-31,52.3,39.0,27.6,40.0,29.0,19.0,94,70,36,30.03,29.61,10,1,0,0.19
2013-4-1,39.5,35.0,26.7,38.0,27.4,12.0,96,76,39,29.82,29.51,39,12,0,0.18
2013-4-2,30.3,25.6,22.1,24.0,21.1,16.0,91,83,63,29.97,29.81,27,9,0,0.02
2013-4-3,31.9,28.4,23.9,21.0,15.3,11.0,80,59,46,30.24,29.97,31,16,0,0.00
2013-4-4,49.6,30.9,19.2,26.0,20.6,16.0,90,68,32,30.29,29.88,7,0,0,0.00
2013-4-5,40.1,33.7,26.4,31.0,25.5,20.0,86,73,53,29.98,29.81,27,9,0,0.00
2013-4-6,41.8,33.1,24.4,17.0,9.0,2.0,61,38,22,30.27,30.05,16,4,0,0.00
2013-4-7,63.1,48.0,33.8,39.0,29.3,12.0,71,50,34,30.13,29.70,23,4,0,0.01
2013-4-8,56.5,44.2,37.5,42.0,33.7,31.0,82,68,44,30.07,29.79,13,2,0,0.04
2013-4-9,53.2,46.2,41.1,46.0,40.7,36.0,95,81,67,30.03,29.70,27,6,0,0.33
2013-4-10,49.5,44.8,40.8,48.0,42.7,38.0,97,92,80,29.96,29.77,12,1,0,0.52
2013-4-11,41.8,36.9,33.8,38.0,31.6,26.0,94,81,65,30.05,29.85,8,1,0,0.17
2013-4-12,37.3,35.6,33.2,36.0,33.4,30.0,96,91,83,29.99,29.63,12,3,0,0.94
2013-4-13,47.3,39.8,36.3,39.0,36.2,34.0,97,87,62,29.88,29.72,20,2,0,0.04
2013-4-14,43.6,38.2,31.8,35.0,29.3,23.0,94,72,46,30.17,29.86,19,6,0,0.01
2013-4-15,62.7,47.2,30.9,41.0,32.3,24.0,78,58,41,30.23,30.07,7,1,0,0.00
2013-4-16,57.3,52.8,43.8,55.0,46.3,37.0,96,80,62,30.13,29.90,17,2,0,0.42
2013-4-17,56.0,45.8,33.2,36.0,32.8,28.0,95,64,35,30.25,30.12,18,3,0,0.00
2013-4-18,68.3,53.8,40.3,51.0,41.1,29.0,88,63,46,30.23,29.84,11,2,0,0.10
2013-4-19,71.1,59.7,41.1,58.0,51.2,37.0,93,74,60,29.84,29.37,36,5,0,0.37
2013-4-20,44.1,39.0,32.2,39.0,28.4,20.0,92,66,47,30.30,29.65,29,11,0,0.01
2013-4-21,47.1,36.4,27.3,26.0,19.3,14.0,74,53,28,30.59,30.31,14,4,0,0.00
2013-4-22,56.0,44.9,31.3,27.0,21.9,18.0,77,42,25,30.59,30.37,10,2,0,0.00
2013-4-23,58.1,47.0,35.3,39.0,31.3,25.0,73,56,39,30.38,30.02,9,2,0,0.00
2013-4-24,71.1,53.6,40.5,56.0,43.7,36.0,95,71,43,30.02,29.58,32,3,0,0.28
2013-4-25,54.8,45.0,38.0,37.0,28.7,23.0,84,55,31,30.20,29.84,24,8,0,0.00
2013-4-26,51.1,43.6,36.9,37.0,32.9,27.0,95,68,40,30.40,30.20,19,3,0,0.04
2013-4-27,61.0,47.1,31.8,44.0,33.3,26.0,84,61,32,30.39,30.21,12,1,0,0.00
2013-4-28,74.0,58.4,41.8,42.0,37.0,33.0,81,50,23,30.21,29.98,6,1,0,0.00
2013-4-29,59.3,52.0,48.2,50.0,46.5,37.0,93,82,43,30.09,30.03,4,0,0,0.33
2013-4-30,70.3,58.5,49.6,53.0,49.0,46.0,92,72,47,30.19,30.09,4,0,0,0.03
2013-5-1,75.8,62.1,46.8,48.0,39.2,30.0,92,50,24,30.35,30.20,7,1,0,0.00
2013-5-2,79.4,63.3,47.6,48.0,38.2,33.0,68,42,22,30.39,30.19,5,0,0,0.00
2013-5-3,72.8,63.3,55.3,43.0,36.4,29.0,51,38,23,30.32,30.19,10,2,0,0.00
2013-5-4,75.3,61.1,44.9,48.0,39.6,33.0,72,47,28,30.26,30.09,8,0,0,0.00
2013-5-5,77.6,63.5,48.0,53.0,40.2,30.0,75,46,21,30.18,30.03,10,0,0,0.00
2013-5-6,76.5,61.7,44.2,42.0,35.8,28.0,69,41,18,30.15,29.98,5,0,0,0.00
2013-5-7,79.6,65.0,50.8,57.0,45.2,36.0,82,53,21,30.08,29.95,5,0,0,0.00
2013-5-8,73.3,62.2,53.8,60.0,53.7,43.0,92,75,52,30.04,29.89,5,0,0,0.06
2013-5-9,71.6,62.0,53.6,57.0,53.8,51.0,96,77,48,29.90,29.80,15,0,0,0.00
2013-5-10,73.5,60.3,49.8,63.0,55.1,49.0,96,84,58,29.93,29.72,4,0,0,0.31
2013-5-11,61.2,55.4,47.6,60.0,52.3,45.0,97,89,77,29.71,29.59,21,5,0,0.18
2013-5-12,53.9,46.3,36.9,46.0,37.0,22.0,96,73,30,29.83,29.61,30,8,0,0.03
2013-5-13,48.2,41.6,36.0,35.0,30.7,26.0,92,67,43,30.05,29.83,24,8,0,0.02
2013-5-14,55.1,43.7,30.7,34.0,28.8,23.0,94,60,30,30.11,29.98,11,2,0,0.00
2013-5-15,67.3,49.6,35.9,53.0,38.1,27.0,92,66,47,29.98,29.52,16,2,0,0.10
2013-5-16,70.9,46.6,44.8,48.0,3.7,-99.9,90,34,26,29.87,29.65,36,-251,0,0.00
2013-5-17,66.6,54.6,40.9,46.0,40.3,34.0,88,61,32,30.18,29.89,13,2,0,0.00
2013-5-18,74.0,57.3,40.6,50.0,43.1,38.0,93,64,32,30.24,30.13,3,0,0,0.00
2013-5-19,61.5,57.3,51.3,55.0,51.3,46.0,84,80,73,30.17,30.05,2,0,0,0.00
2013-5-20,81.2,57.4,58.4,64.0,31.3,-99.9,86,59,52,30.05,29.85,5,-178,0,0.00
2013-5-21,82.2,70.3,62.1,71.0,63.9,60.0,97,82,57,29.87,29.69,6,0,0,1.00
2013-5-22,83.0,70.4,62.1,70.0,64.8,61.0,97,84,57,29.77,29.65,6,0,0,0.19
2013-5-23,75.8,65.7,60.9,67.0,62.3,57.0,97,89,63,29.72,29.64,11,0,0,0.32
2013-5-24,60.9,46.6,42.8,60.0,43.3,38.0,97,88,78,30.06,29.67,22,10,0,0.27
2013-5-25,52.0,47.2,43.9,43.0,39.4,36.0,94,75,58,30.06,29.99,25,15,0,0.07
2013-5-26,57.8,50.4,42.1,41.0,38.5,34.0,86,65,42,30.11,29.94,27,13,0,0.00
2013-5-27,65.0,52.4,36.6,42.0,36.1,27.0,96,60,24,30.20,30.09,20,4,0,0.00
2013-5-28,66.9,55.5,39.9,55.0,45.5,36.0,92,70,47,30.14,29.98,4,0,0,0.04
2013-5-29,77.6,63.9,56.5,70.0,61.0,55.0,97,91,65,29.99,29.86,20,0,0,1.03
2013-5-30,82.6,70.2,58.3,68.0,63.5,58.0,98,81,56,30.06,29.97,11,1,0,0.00
2013-5-31,88.6,75.0,62.4,67.0,63.5,60.0,95,71,39,30.05,29.86,9,1,0,0.00
2013-6-1,87.6,75.0,62.6,71.0,65.3,61.0,95,74,49,29.89,29.72,15,0,0,0.01
2013-6-2,79.6,70.4,65.2,69.0,63.7,56.0,94,80,58,29.77,29.63,18,2,0,0.07
2013-6-3,65.5,56.6,48.5,57.0,45.6,37.0,81,68,43,29.92,29.77,17,7,0,0.00
2013-6-4,63.7,54.4,44.1,46.0,42.2,38.0,90,66,40,30.10,29.92,21,7,0,0.00
2013-6-5,70.4,58.4,44.8,49.0,43.9,40.0,87,61,35,30.16,30.05,6,1,0,0.00
2013-6-6,62.3,57.2,52.9,58.0,51.1,43.0,96,81,58,30.05,29.89,6,0,0,1.10
2013-6-7,58.1,56.1,54.4,56.0,54.8,53.0,97,95,90,29.88,29.74,4,0,0,0.26
2013-6-8,63.5,59.0,55.3,57.0,55.9,54.0,97,89,78,30.01,29.71,11,2,0,0.00
2013-6-9,74.6,63.8,54.8,57.0,55.1,53.0,98,76,48,30.12,30.00,10,2,0,0.00
2013-6-10,68.1,60.3,54.2,61.0,57.1,52.0,96,89,68,30.12,29.75,5,1,0,0.66
2013-6-11,63.4,60.3,57.2,62.0,58.5,55.0,97,94,86,29.74,29.55,15,4,0,0.33
2013-6-12,71.8,61.9,54.8,57.0,53.2,50.0,94,75,50,29.84,29.68,20,5,0,0.00
2013-6-13,58.9,57.0,54.5,56.0,54.9,53.0,96,92,84,29.77,29.57,5,1,0,1.05
2013-6-14,72.3,61.6,52.0,61.0,54.8,51.0,95,79,53,29.87,29.68,28,4,0,0.00
2013-6-15,71.1,60.7,48.6,55.0,49.0,41.0,97,70,35,29.97,29.87,22,4,0,0.00
2013-6-16,68.8,59.8,51.9,62.0,55.1,45.0,97,85,65,29.91,29.65,10,1,0,0.49
2013-6-17,74.6,65.0,57.3,66.0,59.5,55.0,98,84,58,29.87,29.75,19,2,0,0.32
2013-6-18,69.6,61.0,56.0,56.0,51.7,46.0,94,73,46,29.93,29.84,16,2,0,0.03
2013-6-19,70.8,60.4,50.8,48.0,44.1,38.0,83,57,35,30.14,29.94,11,2,0,0.00
2013-6-20,75.6,61.0,45.1,57.0,48.3,44.0,95,67,34,30.22,30.14,10,2,0,0.00
2013-6-21,81.2,65.0,49.6,58.0,49.4,42.0,91,61,27,30.23,30.13,5,0,0,0.00
2013-6-22,84.0,72.3,59.6,70.0,62.1,53.0,88,71,46,30.15,29.98,6,0,0,0.01
2013-6-23,88.0,74.6,67.6,71.0,68.0,66.0,94,81,54,30.03,29.93,11,1,0,0.01
2013-6-24,87.0,72.5,65.2,71.0,66.8,63.0,95,84,54,29.98,29.88,31,1,0,0.20
2013-6-25,80.3,71.2,62.7,71.0,66.2,62.0,96,85,68,29.92,29.74,23,2,0,0.13
2013-6-26,81.1,72.4,66.8,70.0,67.2,64.0,97,84,58,29.76,29.71,9,1,0,0.30
2013-6-27,84.5,71.5,62.1,71.0,65.7,61.0,96,83,52,29.76,29.54,4,0,0,0.35
2013-6-28,73.0,67.5,61.2,68.0,63.9,60.0,97,88,71,29.54,29.41,11,2,0,1.01
2013-6-29,72.8,66.3,61.0,68.0,63.5,60.0,96,91,75,29.64,29.43,7,0,0,0.64
2013-6-30,83.4,71.4,60.1,67.0,63.7,59.0,98,79,50,29.85,29.64,10,0,0,0.00
2013-7-1,73.2,69.5,67.1,70.0,66.2,62.0,96,89,81,29.94,29.84,7,0,0,1.00
2013-7-2,80.1,72.1,67.3,74.0,69.8,67.0,97,92,75,30.04,29.93,20,0,0,1.28
2013-7-3,84.9,76.5,70.1,76.0,71.1,69.0,97,84,62,30.11,30.03,6,0,0,0.00
2013-7-4,86.1,77.7,71.6,74.0,71.1,69.0,94,81,62,30.12,30.04,15,1,0,0.00
2013-7-5,84.5,74.7,69.8,75.0,71.3,69.0,96,89,67,30.09,30.00,12,0,0,0.36
2013-7-6,82.4,74.7,69.8,71.0,68.5,63.0,98,83,53,30.08,29.98,7,1,0,0.00
2013-7-7,84.9,75.3,68.1,72.0,69.2,65.0,96,82,62,30.01,29.87,14,2,0,1.14
2013-7-8,82.2,73.5,68.6,71.0,68.7,65.0,98,86,57,29.99,29.90,8,1,0,0.00
2013-7-9,86.1,74.3,66.3,71.0,68.1,65.0,96,82,58,30.01,29.88,4,0,0,0.00
2013-7-10,82.6,74.2,69.6,75.0,70.9,67.0,96,89,72,29.88,29.66,19,1,0,0.81
2013-7-11,76.5,70.9,64.5,68.0,62.9,59.0,96,77,58,29.96,29.71,11,3,0,0.00
2013-7-12,81.8,70.1,59.9,65.0,59.9,56.0,90,72,44,30.11,29.96,5,1,0,0.00
2013-7-13,77.9,71.3,64.8,69.0,64.5,59.0,92,79,68,30.22,30.11,4,0,0,0.00
2013-7-14,88.0,77.7,67.6,74.0,68.4,64.0,95,75,47,30.27,30.17,9,1,0,0.00
2013-7-15,87.0,77.6,69.1,71.0,67.2,63.0,92,72,48,30.22,30.13,14,2,0,0.00
2013-7-16,88.2,76.9,65.6,73.0,67.8,64.0,95,75,50,30.20,30.12,10,1,0,0.00
2013-7-17,91.4,78.3,66.0,76.0,70.1,65.0,96,78,49,30.17,29.98,9,1,0,0.00
2013-7-18,89.5,79.7,71.3,75.0,72.3,69.0,97,80,51,30.00,29.88,12,2,0,0.02
2013-7-19,92.1,80.6,69.4,75.0,70.9,66.0,96,75,49,29.88,29.65,22,2,0,0.02
2013-7-20,77.7,71.1,65.2,70.0,66.3,62.0,96,85,69,29.80,29.66,24,1,0,0.07
2013-7-21,79.2,70.0,60.7,64.0,59.6,54.0,96,72,44,29.94,29.81,12,2,0,0.00
2013-7-22,84.1,70.7,60.5,72.0,63.1,55.0,94,77,59,29.94,29.75,6,0,0,0.02
2013-7-23,81.4,71.7,65.6,70.0,67.3,65.0,97,87,61,29.74,29.53,12,1,0,0.42
2013-7-24,71.8,63.9,53.9,66.0,55.6,49.0,89,75,61,29.98,29.56,21,7,0,0.01
2013-7-25,76.3,63.5,50.1,55.0,50.5,47.0,91,66,38,30.07,29.99,9,1,0,0.00
2013-7-26,79.8,66.2,53.5,60.0,54.5,50.0,90,68,45,30.04,29.95,7,0,0,0.00
2013-7-27,81.6,69.3,55.6,67.0,59.8,53.0,96,74,48,29.98,29.83,3,0,0,0.80
2013-7-28,72.8,67.6,63.4,68.0,65.4,61.0,97,93,82,29.90,29.82,10,0,0,1.00
2013-7-29,73.7,64.1,56.5,62.0,57.5,54.0,98,81,51,30.06,29.92,10,2,0,0.00
2013-7-30,72.5,65.0,56.6,60.0,57.4,55.0,96,78,56,30.13,30.06,15,3,0,0.00
2013-7-31,78.8,66.4,54.5,61.0,57.5,53.0,96,76,47,30.11,29.93,4,0,0,0.00
2013-8-1,73.7,65.7,62.0,69.0,61.8,57.0,96,87,74,29.93,29.71,10,1,0,0.42
2013-8-2,75.6,65.9,59.9,65.0,60.7,56.0,97,85,52,29.84,29.77,10,1,0,0.20
2013-8-3,73.2,65.6,58.1,63.0,57.6,49.0,98,78,44,29.85,29.74,17,4,0,0.16
2013-8-4,69.8,63.1,56.7,60.0,55.4,52.0,96,77,56,29.95,29.82,25,6,0,0.00
2013-8-5,71.6,62.0,48.8,53.0,49.3,42.0,96,66,36,30.03,29.95,15,3,0,0.00
2013-8-6,76.5,64.1,49.9,59.0,53.7,48.0,93,71,46,30.04,30.00,4,0,0,0.00
2013-8-7,72.7,67.8,61.3,65.0,61.4,56.0,87,80,73,30.02,29.91,4,0,0,0.00
2013-8-8,84.0,73.5,66.0,72.0,67.6,64.0,95,82,63,29.94,29.86,3,0,0,0.03
2013-8-9,77.4,71.7,65.2,71.0,68.3,63.0,96,89,75,29.86,29.75,10,1,0,0.01
2013-8-10,70.3,65.3,55.6,63.0,54.8,47.0,92,71,44,30.03,29.83,22,7,0,0.00
2013-8-11,73.3,62.4,50.8,57.0,53.6,50.0,96,75,53,30.07,29.98,11,1,0,0.00
2013-8-12,76.7,66.0,54.2,62.0,56.9,52.0,94,74,47,30.00,29.83,9,1,0,0.00
2013-8-13,74.2,65.5,58.0,67.0,61.0,51.0,97,86,70,29.82,29.64,18,3,0,0.35
2013-8-14,66.1,59.6,54.1,55.0,52.9,50.0,93,79,62,29.98,29.73,23,6,0,0.02
2013-8-15,71.1,59.3,49.5,56.0,52.0,48.0,96,79,50,30.08,29.98,8,1,0,0.00
2013-8-16,74.9,62.2,51.1,58.0,52.8,48.0,95,74,41,30.16,30.07,9,0,0,0.00
2013-8-17,77.6,64.9,51.0,59.0,54.8,49.0,95,72,45,30.25,30.16,2,0,0,0.00
2013-8-18,77.0,66.1,56.9,63.0,58.6,55.0,93,78,52,30.21,30.06,2,0,0,0.00
2013-8-19,78.8,67.7,57.8,63.0,59.1,57.0,96,76,50,30.06,29.96,13,1,0,0.00
2013-8-20,80.1,67.7,55.6,65.0,59.6,54.0,96,77,54,30.07,29.99,5,0,0,0.00
2013-8-21,83.2,70.1,58.0,68.0,61.3,57.0,96,76,45,30.12,29.97,6,0,0,0.00
2013-8-22,84.0,69.8,61.0,69.0,64.7,59.0,96,85,53,29.98,29.80,18,1,0,0.06
2013-8-23,73.0,64.8,56.6,65.0,55.7,52.0,95,74,50,30.14,29.89,14,3,0,0.01
2013-8-24,75.1,63.3,49.9,57.0,52.9,48.0,95,72,47,30.30,30.14,4,0,0,0.00
2013-8-25,80.1,65.7,51.3,62.0,55.7,50.0,95,73,40,30.32,30.09,6,0,0,0.00
2013-8-26,72.8,67.8,62.6,69.0,65.1,60.0,96,91,79,30.10,29.85,5,0,0,0.31
2013-8-27,79.6,70.9,64.0,70.0,66.4,62.0,97,86,67,29.90,29.82,5,0,0,0.04
2013-8-28,84.9,74.2,64.5,71.0,66.7,63.0,96,79,50,29.86,29.77,9,1,0,0.00
2013-8-29,83.8,71.5,64.3,72.0,66.1,63.0,97,84,53,29.96,29.86,7,0,0,0.69
2013-8-30,81.4,70.4,63.2,70.0,66.2,62.0,99,88,58,29.94,29.73,6,0,0,0.21
2013-8-31,80.7,71.9,67.1,72.0,68.5,66.0,98,89,69,29.78,29.67,17,1,0,0.04
2013-9-1,82.0,73.7,67.8,70.0,67.6,65.0,96,82,60,29.80,29.70,4,0,0,0.00
2013-9-2,79.8,69.0,63.9,73.0,66.6,63.0,98,92,71,29.77,29.57,24,0,0,0.94
2013-9-3,68.6,62.7,59.5,64.0,59.3,56.0,98,89,64,29.84,29.69,13,2,0,0.08
2013-9-4,73.3,65.2,56.2,62.0,56.7,50.0,96,76,45,29.92,29.84,17,4,0,0.03
2013-9-5,64.5,59.9,48.5,62.0,48.1,40.0,96,67,42,30.15,29.85,21,8,0,0.00
2013-9-6,65.5,53.9,41.5,51.0,44.1,39.0,93,72,45,30.24,30.07,6,0,0,0.00
2013-9-7,64.5,57.7,49.9,59.0,53.3,47.0,96,86,62,30.06,29.83,2,0,0,0.07
2013-9-8,63.5,58.9,49.2,60.0,48.8,39.0,98,72,42,30.07,29.77,24,7,0,0.02
2013-9-9,69.9,56.5,42.2,57.0,47.6,40.0,94,74,43,30.15,29.98,2,0,0,0.00
2013-9-10,81.6,69.7,59.6,74.0,65.8,55.0,98,88,75,29.99,29.89,3,0,0,0.50
2013-9-11,90.1,74.6,67.6,75.0,70.3,67.0,97,88,55,30.00,29.87,39,1,0,1.18
2013-9-12,75.8,68.4,63.7,70.0,66.7,63.0,98,94,73,29.86,29.63,7,0,0,0.30
2013-9-13,63.5,57.4,50.7,62.0,52.8,46.0,96,84,75,29.90,29.62,17,8,0,0.00
2013-9-14,58.6,51.9,44.8,46.0,44.9,43.0,95,78,60,30.08,29.89,19,6,0,0.00
2013-9-15,63.2,49.6,41.5,54.0,45.8,41.0,96,87,70,30.14,30.04,3,0,0,0.00
2013-11-26,32.8,32.2,31.6,32.0,31.3,30.0,96,96,95,30.02,29.81,0,0,0,0.01
2013-11-27,37.3,33.4,26.1,37.0,31.0,21.0,97,91,78,29.79,29.42,22,9,0,0.06
2013-11-28,25.7,22.2,17.8,22.0,16.4,11.0,90,79,54,30.38,29.66,24,10,0,0.00
2013-11-29,26.6,17.9,11.7,17.0,11.4,5.0,89,76,64,30.72,30.38,17,2,0,0.00
2013-11-30,26.9,17.9,5.0,19.0,9.4,1.0,86,70,55,30.73,30.25,4,0,0,0.00
2013-12-1,37.0,31.8,25.7,28.0,25.3,19.0,85,77,67,30.24,29.94,2,0,0,0.00
2013-12-2,38.5,34.5,32.7,32.0,30.5,28.0,90,85,78,29.94,29.81,0,0,0,0.00
2013-12-3,38.3,33.4,27.8,33.0,29.9,26.0,95,87,72,29.96,29.83,0,0,0,0.00
2013-12-4,40.3,32.8,25.1,31.0,27.7,24.0,95,82,68,30.04,29.96,2,0,0,0.00
2013-12-5,48.0,42.4,35.0,47.0,38.4,28.0,97,85,75,30.00,29.76,25,2,0,0.02
2013-12-6,41.3,34.1,30.3,37.0,30.7,26.0,95,87,77,30.13,29.90,15,3,0,0.00
2013-12-7,30.4,28.3,24.8,29.0,24.2,20.0,93,84,74,30.45,30.11,19,8,0,0.00
2013-12-8,26.4,24.8,23.2,22.0,19.0,16.0,89,79,69,30.53,30.30,10,1,0,0.00
2013-12-9,37.3,30.9,24.4,34.0,27.1,20.0,93,86,70,30.30,29.80,11,2,0,0.05
2013-12-10,34.3,28.2,22.7,26.0,18.8,11.0,84,68,57,29.95,29.81,19,10,0,0.00
2013-12-11,26.3,23.0,18.8,19.0,12.5,9.0,90,65,51,30.16,29.95,23,6,0,0.00
2013-12-12,18.6,13.6,3.4,12.0,6.2,-1.0,83,73,58,30.27,29.95,15,2,0,0.00
2013-12-13,21.4,16.4,4.3,18.0,8.3,-7.0,91,71,57,30.37,29.90,20,6,0,0.00
2013-12-14,15.6,8.5,1.8,12.0,1.5,-8.0,87,73,59,30.46,29.89,12,2,0,0.00
2013-12-15,24.2,20.9,15.7,21.0,18.0,13.0,91,88,77,29.87,29.56,16,2,0,0.00
2013-12-16,21.1,10.3,0.5,15.0,4.6,-4.0,88,78,67,30.17,29.69,16,4,0,0.00
2013-12-17,16.1,8.6,-2.8,13.0,4.1,-9.0,86,82,75,30.16,29.93,2,0,0,0.00
2013-12-18,29.0,22.0,11.9,22.0,16.8,9.0,88,80,68,30.00,29.90,13,1,0,0.00
2013-12-19,38.8,32.0,25.7,30.0,23.7,18.0,89,72,57,30.00,29.88,9,1,0,0.03
2013-12-20,37.0,35.2,32.5,36.0,32.5,28.0,97,90,79,29.98,29.77,0,0,0,0.02
2013-12-21,44.1,37.8,34.6,44.0,37.5,34.0,99,98,97,29.78,29.72,3,0,0,0.03
2013-12-22,48.5,39.5,34.3,48.0,38.9,34.0,99,97,91,29.92,29.50,18,1,0,0.00
2013-12-23,38.5,34.6,26.3,38.0,32.1,17.0,98,91,68,30.16,29.91,22,5,0,0.00
2013-12-24,26.1,20.2,11.6,18.0,12.6,3.0,87,73,61,30.35,30.11,19,8,0,0.00
2013-12-25,19.1,11.6,2.4,8.0,2.2,-4.0,75,66,56,30.51,30.25,18,2,0,0.00
2013-12-26,28.8,23.4,19.2,25.0,19.3,8.0,93,85,62,30.26,30.04,7,1,0,0.00
2013-12-27,29.5,23.8,17.5,25.0,18.9,14.0,89,82,73,30.21,30.11,14,1,0,0.00
2013-12-28,37.2,26.4,14.8,32.0,23.7,12.0,95,89,78,30.10,29.93,3,0,0,0.02
2013-12-29,36.0,30.9,23.6,33.0,28.8,22.0,96,92,79,29.92,29.57,2,0,0,0.02
2013-12-30,34.0,18.6,6.5,33.0,13.1,2.0,97,79,65,30.16,29.61,27,12,0,0.00
2013-12-31,23.2,14.8,7.7,17.0,6.6,2.0,85,71,56,30.14,29.92,26,4,0,0.00
2014-1-1,16.9,14.0,9.2,12.0,7.4,2.0,87,75,65,30.34,30.14,14,1,0,0.00
2014-1-2,9.0,3.7,-5.4,4.0,-1.6,-12.0,81,78,73,30.28,29.89,7,1,0,0.00